Location: Normandy Village
(37.8755°N, 122.2655°W)
Time: 19:06:29
(UTC+00:00)

Cosmos 1666 - Pass Details

Date: 22 September 2019
Orbit: 498 x 521 km, 82.5° (Epoch: 16 October)

Event Time Altitude Azimuth Distance (km) Brightness Sun altitude
Rises 12:12:15 0° 359° (N) 2,606 6.5 -21.1°
Reaches altitude 10° 12:14:26 10° 5° (N) 1,721 5.6 -20.7°
Maximum altitude 12:18:05 47° 80° (E) 678 3.7 -20.0°
Drops below altitude 10° 12:21:44 10° 156° (SSE) 1,720 5.4 -19.3°
Sets 12:23:54 0° 162° (SSE) 2,605 6.3 -18.9°
